IRIDIUM 165

Last updated on Fri Sep 11 2026 00:03:06 GMT+0000 (Coordinated Universal Time)

1 43572U 18061D 26253.40627731 .00000144 00000+0 44295-4 0 9991 2 43572 86.3999 21.1612 0002100 91.5937 268.5499 14.34217688425601
UTC large
Height (km)
Speed (km/s)
/
Latitude / Longitude
Inclination (degrees)
Orbital Period (minutes)
Azimuth
Elevation
Range (km)
Doppler Factor

Next 0 passes for location: London (51.5072 / 0.1276)

No passes found over London.
IRIDIUM 165